Location: Banksville Park
(38.5557°N, 75.1182°W)
Time: 15:10:17
(UTC+00:00)

USA 234 - Pass Details

Date: 19 September 2020
Orbit: 1102 x 1106 km, 123.0° (Epoch: 16 October)

Event Time Altitude Azimuth Distance (km) Brightness Sun altitude
Rises 10:11:57 0° 166° (SSE) 3,902 6.2 -7.5°
Reaches altitude 10° 10:14:48 10° 177° (S) 2,947 5.5 -6.9°
Maximum altitude 10:20:17 29° 235° (SW) 1,897 4.1 -5.8°
Drops below altitude 10° 10:25:49 10° 293° (WNW) 2,960 5.0 -4.8°
Sets 10:28:42 0° 305° (NW) 3,921 5.7 -4.2°
